Flag for U.S.A. Weather past 2 weeks in Fairfax, Virginia, U.S.A.

Now
69 °F

Fog.


Feels Like: 69 °F
Forecast: 64 / 83 °F
Wind: 5 mph from North

Location: Washington-Dulles International Airport

Current Time: Jul 5, 2015 at 3:05:53 AM

Latest Report: Jul 5, 2015 at 1:52 AM


Visibility: 5 mi

Pressure: 30.05 "Hg

Humidity: 90%

Dew point: 66 °F

Location of FairfaxLocation

Historic Weather in Fairfax — Graph

°F

Fairfax temperature yesterday

Maximum temperature yesterday: 79 °F (at 1:52 PM)
Minimum temperature yesterday: 68 °F (at 8:52 AM)
Average temperature yesterday: 72 °F

Past Weeks' High & Low Weather Summary

 TemperatureHumidityPressure
High93 °F (Jun 23, 3:52 PM)100% (Jul 1, 6:56 AM)30.11 "Hg (Jul 1, 6:56 AM)
Low55 °F (Jun 29, 3:52 AM)36% (Jun 29, 2:52 PM)29.67 "Hg (Jun 28, 3:52 AM)
Average74 °F75%29.92 "Hg
* Reported Jun 20 12:52 AM — Jul 5 12:52 AM, Fairfax, Weather by CustomWeather, © 2015

Note: Actual official high and low records may vary slightly from our data, if they occured in-between our weather recording intervals... More about our weather records

Advertising

Fairfax weather history for previous 24 hours

 ConditionsComfort  
Time TempWeatherWind HumidityBarometerVisibility
12:52 AM
Sun, Jul 5
69 °FFog.No wind93%30.04 "Hg3 mi
11:52 PM
Sat, Jul 4
71 °FFog.5 mph93%30.04 "Hg2 mi
10:52 PM70 °FFog.No wind97%30.02 "Hg1 mi
9:52 PM71 °FPassing clouds.No wind93%29.99 "Hg10 mi
8:52 PM71 °FBroken clouds.No wind96%29.97 "Hg10 mi
7:52 PM73 °FBroken clouds.3 mph90%29.96 "Hg10 mi
6:52 PM75 °FMore clouds than sun.3 mph82%29.93 "Hg10 mi
5:52 PM75 °FCloudy.3 mph85%29.92 "Hg10 mi
4:52 PM70 °FBroken clouds.3 mph97%29.92 "Hg10 mi
3:52 PM75 °FCloudy.5 mph71%29.91 "Hg10 mi
2:52 PM79 °FBroken clouds.No wind69%29.89 "Hg10 mi
1:52 PM79 °FPartly sunny.6 mph72%29.90 "Hg10 mi
12:52 PM77 °FCloudy.No wind77%29.90 "Hg10 mi
11:52 AM74 °FCloudy.3 mph85%29.90 "Hg10 mi
10:52 AM72 °FMostly cloudy.6 mph91%29.90 "Hg10 mi
9:52 AM70 °FFog.No wind93%29.91 "Hg5 mi
8:52 AM68 °FHeavy rain. Fog.No wind93%29.91 "Hg1 mi
7:52 AM70 °FFog.3 mph90%29.89 "Hg4 mi
6:52 AM69 °FFog.No wind93%29.88 "Hg6 mi
5:52 AM69 °FMostly cloudy.No wind90%29.88 "Hg7 mi
4:52 AM70 °FMostly cloudy.No wind87%29.88 "Hg8 mi
3:52 AM69 °FOvercast.No wind87%29.88 "Hg8 mi
Weather by CustomWeather, © 2015

See weather overviewHow to use our weather pages